Weather History for Port Lavaca, TX

Change the Weather History Date:

Saturday, December 14, 2013

  Actual Average (KVCT) Record (KVCT)
Temperature  
Mean Temperature 52 °F 55 °F  
Max Temperature 65 °F 66 °F 84 °F (1921)
Min Temperature 39 °F 44 °F 24 °F (1985)
Degree Days  
Heating Degree Days 13 11  
Month to date heating degree days 134  
Since 1 July heating degree days 297  
Cooling Degree Days 0 1  
Month to date cooling degree days 14  
Year to date cooling degree days 3137  
Growing Degree Days 2 (Base 50)    
Moisture  
Dew Point 45 °F    
Average Humidity 75    
Maximum Humidity 92    
Minimum Humidity 44    
Precipitation  
Precipitation 0.00 in 0.07 in 1.45 in (1965)
Month to date precipitation 1.07  
Year to date precipitation 39.98  
Snow  
Snow 0.00 in - - ()
Month to date snowfall  
Since 1 July snowfall  
Snow Depth -    
Sea Level Pressure  
Sea Level Pressure 30.06 in    
Wind  
Wind Speed 10 mph (NNW)    
Max Wind Speed 28 mph    
Max Gust Speed 34 mph    
Visibility 9 miles    
Events      
T = Trace of Precipitation, MM = Missing Value Source: NWS Daily Summary

Daily Weather History Graph

Daily Weather History Graph

Search for Another Location

Airport:

Trip Planner

Search our weather history database for the weather conditions in past years. The results will help you decide how hot, cold, wet, or windy it might be!

Date:

Astronomy

Dec. 14, 2013 Rise Set
Actual Time 7:11 AM CST 5:31 PM CST
Civil Twilight 6:45 AM CST 5:57 PM CST
Nautical Twilight 6:16 AM CST 6:27 PM CST
Astronomical Twilight 5:47 AM CST 6:55 PM CST
Moon 3:47 PM CST (12/14) 4:41 AM CST (12/14)
Length of Visible Light 11h 11m
Length of Day
10h 20m
Waxing Gibbous, 94% of the Moon is Illuminated
Dec 14
Waxing Gibbous
Dec 17
Full
Dec 25
Last Quarter
Jan 1
New
Jan 7
First Quarter

Hourly Weather History & Observations

Time (CST) Temp. Windchill Dew Point Humidity Pressure Visibility Wind Dir Wind Speed Gust Speed Precip Events Conditions
12:15 AM 52.0 °F - 48.2 °F 87% 29.93 in 10.0 mi North 3.5 mph - N/A   Scattered Clouds
12:35 AM 51.3 °F - 48.2 °F 89% 29.93 in 7.0 mi NNW 4.6 mph - N/A   Mostly Cloudy
12:55 AM 51.4 °F - 48.4 °F 89% 29.93 in 7.0 mi Calm Calm - N/A   Mostly Cloudy
1:15 AM 52.7 °F - 49.3 °F 88% 29.92 in 10.0 mi Calm Calm - N/A   Overcast
1:35 AM 53.1 °F - 49.1 °F 86% 29.91 in 10.0 mi Calm Calm - N/A   Overcast
1:55 AM 53.6 °F - 49.3 °F 85% 29.90 in 10.0 mi Calm Calm - N/A   Overcast
2:15 AM 53.2 °F - 49.1 °F 86% 29.90 in 7.0 mi NNW 5.8 mph - N/A   Overcast
2:35 AM 52.9 °F - 49.1 °F 87% 29.90 in 7.0 mi Calm Calm - N/A   Overcast
2:55 AM 53.2 °F - 49.1 °F 86% 29.90 in 7.0 mi NW 4.6 mph - N/A   Overcast
3:15 AM 53.6 °F - 49.1 °F 85% 29.90 in 7.0 mi Calm Calm - N/A   Overcast
3:35 AM 53.6 °F - 49.1 °F 85% 29.89 in 7.0 mi NW 5.8 mph - N/A   Overcast
3:55 AM 53.6 °F - 48.7 °F 84% 29.89 in 7.0 mi NW 5.8 mph - N/A   Overcast
4:15 AM 54.0 °F - 49.1 °F 84% 29.90 in 10.0 mi NW 5.8 mph - N/A   Overcast
4:35 AM 54.0 °F - 49.3 °F 84% 29.90 in 10.0 mi NW 9.2 mph - N/A   Overcast
4:55 AM 54.5 °F - 49.5 °F 83% 29.90 in 10.0 mi NW 5.8 mph - N/A   Overcast
5:15 AM 54.5 °F - 49.6 °F 84% 29.91 in 10.0 mi NW 8.1 mph - N/A   Overcast
5:35 AM 54.7 °F - 50.0 °F 84% 29.91 in 10.0 mi NW 9.2 mph - N/A   Overcast
5:55 AM 54.5 °F - 50.9 °F 88% 29.92 in 7.0 mi WNW 9.2 mph - N/A   Overcast
6:15 AM 54.7 °F - 51.8 °F 90% 29.92 in 7.0 mi West 6.9 mph - N/A   Overcast
6:35 AM 55.8 °F - 53.4 °F 92% 29.92 in 7.0 mi WNW 10.4 mph - N/A   Mostly Cloudy
6:55 AM 56.5 °F - 54.3 °F 92% 29.93 in 7.0 mi WSW 4.6 mph - N/A   Mostly Cloudy
7:15 AM 56.5 °F - 54.1 °F 92% 29.95 in 7.0 mi NW 5.8 mph - N/A   Mostly Cloudy
7:35 AM 55.4 °F - 52.7 °F 91% 29.95 in 7.0 mi NW 9.2 mph - N/A   Scattered Clouds
7:55 AM 55.0 °F - 52.3 °F 91% 29.96 in 10.0 mi WNW 6.9 mph - N/A   Scattered Clouds
8:15 AM 55.0 °F - 52.2 °F 90% 29.97 in 10.0 mi WNW 8.1 mph - N/A   Mostly Cloudy
8:35 AM 55.6 °F - 51.8 °F 87% 29.97 in 10.0 mi WNW 10.4 mph - N/A   Mostly Cloudy
8:55 AM 56.1 °F - 51.8 °F 85% 29.98 in 10.0 mi West 8.1 mph - N/A   Mostly Cloudy
9:15 AM 56.1 °F - 51.1 °F 83% 29.99 in 10.0 mi NW 6.9 mph - N/A   Scattered Clouds
9:35 AM 57.6 °F - 49.6 °F 75% 30.00 in 10.0 mi WNW 10.4 mph - N/A   Scattered Clouds
9:55 AM 58.1 °F - 48.9 °F 71% 30.00 in 10.0 mi NW 6.9 mph - N/A   Clear
10:15 AM 60.1 °F - 47.7 °F 64% 30.01 in 10.0 mi NW 13.8 mph - N/A   Scattered Clouds
10:35 AM 63.1 °F - 46.6 °F 55% 30.01 in 10.0 mi NNW 15.0 mph 19.6 mph N/A   Scattered Clouds
10:55 AM 65.1 °F - 43.7 °F 46% 30.01 in 10.0 mi NNW 20.7 mph 25.3 mph N/A   Scattered Clouds
11:15 AM 64.9 °F - 42.4 °F 44% 30.01 in 10.0 mi NNW 19.6 mph - N/A   Scattered Clouds
11:35 AM 65.7 °F - 43.0 °F 44% 30.01 in 10.0 mi NNW 19.6 mph - N/A   Mostly Cloudy
11:55 AM 64.4 °F - 43.7 °F 47% 30.02 in 10.0 mi NW 18.4 mph - N/A   Overcast
12:15 PM 64.6 °F - 44.2 °F 48% 30.01 in 10.0 mi NNW 20.7 mph 25.3 mph N/A   Overcast
12:35 PM 62.6 °F - 44.2 °F 51% 30.02 in 10.0 mi NNW 23.0 mph - N/A   Scattered Clouds
12:55 PM 63.3 °F - 44.6 °F 50% 30.02 in 10.0 mi NNW 24.2 mph 29.9 mph N/A   Scattered Clouds
1:15 PM 61.7 °F - 44.8 °F 54% 30.03 in 10.0 mi NNW 23.0 mph 28.8 mph N/A   Scattered Clouds
1:35 PM 60.3 °F - 45.7 °F 59% 30.03 in 10.0 mi NNW 27.6 mph - N/A   Scattered Clouds
1:55 PM 60.4 °F - 45.7 °F 58% 30.04 in 10.0 mi NNW 25.3 mph 32.2 mph N/A   Scattered Clouds
2:15 PM 60.1 °F - 45.5 °F 59% 30.05 in 10.0 mi NNW 24.2 mph 33.4 mph N/A   Clear
2:35 PM 58.8 °F - 44.8 °F 60% 30.06 in 10.0 mi NNW 25.3 mph 33.4 mph N/A   Scattered Clouds
2:55 PM 56.7 °F - 44.4 °F 64% 30.07 in 10.0 mi North 26.5 mph 33.4 mph N/A   Scattered Clouds
3:15 PM 56.3 °F - 44.1 °F 64% 30.08 in 10.0 mi NNW 27.6 mph 34.5 mph N/A   Scattered Clouds
3:35 PM 55.2 °F - 44.1 °F 66% 30.10 in 10.0 mi North 26.5 mph 33.4 mph N/A   Scattered Clouds
3:55 PM 54.1 °F - 44.1 °F 69% 30.11 in 10.0 mi North 21.9 mph 32.2 mph N/A   Overcast
4:15 PM 52.9 °F - 43.9 °F 71% 30.12 in 10.0 mi North 24.2 mph 28.8 mph N/A   Overcast
4:35 PM 51.8 °F - 43.3 °F 73% 30.13 in 10.0 mi NNW 23.0 mph 28.8 mph N/A   Overcast
4:55 PM 51.1 °F - 43.0 °F 74% 30.13 in 10.0 mi NNW 25.3 mph 31.1 mph N/A   Overcast
5:15 PM 50.5 °F - 42.4 °F 74% 30.15 in 10.0 mi North 21.9 mph 31.1 mph N/A   Overcast
5:35 PM 50.0 °F - 41.9 °F 74% 30.16 in 10.0 mi North 19.6 mph 27.6 mph N/A   Overcast
5:55 PM 50.0 °F - 41.5 °F 73% 30.16 in 10.0 mi North 20.7 mph 27.6 mph N/A   Overcast
6:15 PM 50.0 °F - 41.5 °F 73% 30.18 in 10.0 mi North 20.7 mph - N/A   Overcast
6:35 PM 50.2 °F - 41.5 °F 72% 30.18 in 10.0 mi North 20.7 mph 25.3 mph N/A   Overcast
6:55 PM 50.0 °F - 41.2 °F 72% 30.20 in 10.0 mi NNW 24.2 mph 32.2 mph N/A   Overcast
7:15 PM 49.3 °F - 41.0 °F 73% 30.21 in 10.0 mi North 17.3 mph 23.0 mph N/A   Overcast
7:35 PM 47.8 °F - 39.4 °F 72% 30.21 in 10.0 mi NNW 18.4 mph - N/A   Scattered Clouds
7:55 PM 46.6 °F - 38.3 °F 73% 30.23 in 7.0 mi North 16.1 mph 26.5 mph N/A   Clear
8:15 PM 45.7 °F 39.8 °F 37.9 °F 74% 30.24 in 7.0 mi NNW 12.7 mph 19.6 mph N/A   Clear
8:35 PM 45.3 °F 38.7 °F 37.8 °F 75% 30.25 in 7.0 mi North 15.0 mph 20.7 mph N/A   Clear
8:55 PM 44.6 °F 38.1 °F 37.4 °F 76% 30.26 in 7.0 mi North 13.8 mph - N/A   Clear
9:15 PM 43.9 °F 37.9 °F 37.0 °F 77% 30.26 in 7.0 mi North 11.5 mph 19.6 mph N/A   Clear
9:35 PM 43.7 °F 36.3 °F 36.1 °F 75% 30.27 in 10.0 mi North 16.1 mph 20.7 mph N/A   Clear
9:55 PM 43.0 °F 36.8 °F 35.6 °F 75% 30.28 in 10.0 mi North 11.5 mph - N/A   Clear
10:15 PM 42.3 °F 36.3 °F 35.1 °F 76% 30.29 in 10.0 mi North 10.4 mph - N/A   Clear
10:35 PM 41.9 °F 35.9 °F 34.9 °F 76% 30.29 in 10.0 mi North 10.4 mph - N/A   Clear
10:55 PM 41.5 °F 35.0 °F 34.3 °F 76% 30.30 in 10.0 mi North 11.5 mph - N/A   Clear
11:15 PM 41.0 °F 35.8 °F 34.2 °F 77% 30.30 in 10.0 mi North 8.1 mph - N/A   Clear
11:35 PM 39.7 °F 36.5 °F 33.8 °F 79% 30.31 in 7.0 mi North 4.6 mph - N/A   Clear
11:55 PM 39.7 °F - 33.8 °F 79% 30.32 in 7.0 mi Calm Calm - N/A   Clear